Orbital Elements at Epoch 2459000.5 (2020-May-31.0) TDB
Reference: JPL 16 (heliocentric ecliptic J2000)
Element | Value | Uncertainty (1-sigma) | Units |
e | .1735987734569276 | 1.0002e-07 | |
a | 2.549108182509398 | 2.0957e-08 | au |
q | 2.106586128616748 | 2.6687e-07 | au |
i | 3.169600745800972 | 1.0788e-05 | deg |
node | 28.2075856654831 | 8.9043e-05 | deg |
peri | 38.23630350304767 | 0.00011344 | deg |
M | 101.9583554335306 | 6.6881e-05 | deg |
tp | 2458579.481530225668 (2019-Apr-05.98153023) | 0.00027197 | TDB |
period | 1486.554470933673 4.07 | 1.8332e-05 5.019e-08 | d yr |
n | .2421707425049091 | 2.9864e-09 | deg/d |
Q | 2.991630236402047 | 2.4595e-08 | au |
|
| | Orbit Determination Parameters
Additional Information
|